Starlink 4634

operational
NORAD ID: 53967 Int'l Des: 2022-125 Owner: SPXS Country: US Constellation: starlink
LEOCIRCULAR

关于 Starlink 4634

正在加载描述...

实时位置

正在加载3D地球...

即将过境

高度历史

Altitude vs Time

uPlot chart will show altitude changes over time

两行轨道根数

1 53967U 22125D 25303.80640970 .00000603 00000-0 55960-4 0 9997
2 53967 53.2160 87.2263 0001327 81.7897 278.3245 15.08836548169713
Epoch: Oct 30, 2025 • Age: 11 hours

当前状态

高度 559.1 km
速度 7.58 km/s
星下点 -52.93°S, 145.62°W
发射日期 Oct 5, 2022
运行时间 3 years
类型 internet

技术详情

分类 Payload
质量 305.00 kg
干质量 290.00 kg
总质量 305.00 kg
长度 0.20 m
直径 2.80 m
跨度 9.00 m
形状 Box + pan
制造商 SPXS
平台类型 Starlink
阶段状态 In Orbit
所有者/国家 SPXS/US

大型星座

Loading constellations...